1489687200.6,58509,9.5,72988.0,-10.69,-11.67,-11.67,0,*6F
1489687201.87,58510,9.44,72986.3,-10.69,-11.67,-11.67,0,*67
1489687203.13,58511,9.44,72988.0,-10.69,-11.67,-11.59,0,*6B
1489687204.4,58512,9.44,73000.3,-10.69,-11.59,-11.59,0,*65
1489687205.67,58513,9.44,72990.3,-10.69,-11.55,-11.59,0,*68
1489687206.95,58514,9.5,72976.5,-10.67,-11.77,-11.77,0,*6D
1489687208.22,58515,9.44,72994.3,-10.69,-11.67,-11.67,0,*62
1489687209.49,58516,9.44,73002.8,-10.69,-11.67,-11.73,0,*64
1489687210.75,58517,9.44,72972.5,-10.69,-11.97,-11.97,0,*60
1489687212.01,58518,9.44,72980.3,-10.69,-11.81,-11.85,0,*6B
1489687213.28,58519,9.44,72978.5,-10.69,-11.67,-11.81,0,*66
1489687214.53,58520,9.5,72964.0,-10.69,-11.73,-11.81,0,*69
1489687215.83,58521,9.44,72964.5,-10.67,-11.55,-11.55,0,*6B
1489687217.09,58522,9.5,72980.5,-10.69,-11.59,-11.59,0,*66
1489687218.36,58523,9.44,72958.3,-10.69,-11.59,-11.59,0,*67
1489687219.63,58524,9.44,72956.3,-10.69,-11.59,-11.67,0,*6D
1489687220.9,58525,9.44,72976.0,-10.69,-11.67,-11.67,0,*61
1489687222.16,58526,9.44,72970.3,-10.69,-11.59,-11.59,0,*62
1489687223.46,58527,9.44,72980.8,-10.67,-11.63,-11.63,0,*6D
1489687224.73,58528,9.5,72984.5,-10.69,-11.67,-11.59,0,*61
1489687226.0,58529,9.44,72980.3,-10.69,-11.67,-11.59,0,*60
1489687227.26,58530,9.5,72988.8,-10.69,-11.59,-11.59,0,*65
1489687228.53,58531,9.5,72986.0,-10.69,-11.59,-11.67,0,*69
1489687229.8,58532,9.44,72954.8,-10.69,-11.55,-11.67,0,*66
1489687231.07,58533,9.44,72980.0,-10.69,-11.59,-11.59,0,*66
1489687232.33,58534,9.44,72956.3,-10.69,-11.55,-11.59,0,*6D
1489687233.6,58535,9.5,72988.0,-10.69,-11.59,-11.67,0,*6D
1489687234.87,58536,9.44,72958.0,-10.69,-11.59,-11.67,0,*6E
1489687236.14,58537,9.44,72970.5,-10.69,-11.59,-11.59,0,*62
1489687237.43,58538,9.44,72968.3,-10.67,-11.51,-11.55,0,*67
1489687238.69,58539,9.44,73006.8,-10.69,-11.55,-11.59,0,*60
1489687239.98,58540,9.44,72970.3,-10.67,-11.51,-11.51,0,*6C
1489687241.25,58541,9.5,72966.3,-10.69,-11.55,-11.55,0,*63
1489687242.54,58542,9.44,72998.8,-10.67,-11.51,-11.55,0,*6A
1489687243.81,58543,9.44,73070.0,-10.69,-11.55,-11.59,0,*6D
1489687245.1,58544,9.44,72996.8,-10.67,-11.55,-11.63,0,*6D
1489687246.37,58545,9.44,72954.8,-10.69,-11.59,-11.59,0,*67
1489687247.67,58546,9.44,72982.0,-10.67,-11.63,-11.63,0,*6A
1489687248.96,58547,9.44,72956.0,-10.67,-11.63,-11.67,0,*6F
1489687250.25,58548,9.44,72946.8,-10.67,-11.77,-11.81,0,*6D
1489687251.51,58549,9.44,72966.3,-10.69,-11.81,-11.73,0,*66
1489687252.81,58550,9.44,72974.5,-10.67,-11.77,-11.67,0,*6C
1489687254.1,58551,9.5,72984.5,-10.67,-11.67,-11.77,0,*6D
1489687255.38,58552,9.44,73016.3,-10.67,-11.77,-11.81,0,*66
1489687256.63,58553,9.44,73048.3,-10.69,-11.93,-12.21,0,*6A
1489687257.9,58554,9.44,73028.5,-10.69,-12.35,-12.35,0,*67
1489687259.15,58555,9.44,73034.0,-10.69,-12.47,-12.35,0,*63
1489687260.42,58556,9.44,73018.0,-10.67,-12.35,-12.29,0,*66
1489687261.68,58557,9.44,73018.0,-10.67,-12.43,-12.07,0,*6A
1489687262.96,58558,9.5,72994.8,-10.67,-12.21,-11.93,0,*6F
1489687264.23,58559,9.5,73018.5,-10.69,-12.07,-11.97,0,*60
1489687265.5,58560,9.5,73008.0,-10.69,-12.07,-11.93,0,*6E
1489687266.74,58561,9.5,72998.0,-10.69,-12.35,-12.25,0,*60
1489687268.01,58562,9.44,72996.8,-10.69,-12.35,-12.35,0,*62
1489687269.23,58563,9.44,72966.8,-10.69,-12.29,-12.29,0,*63
1489687270.48,58564,9.44,72978.5,-10.71,-12.21,-12.21,0,*6D
1489687271.74,58565,9.44,72906.3,-10.69,-12.07,-11.85,0,*6C
1489687273.03,58566,9.44,72866.8,-10.71,-11.85,-11.85,0,*6F
1489687274.3,58567,9.44,72904.5,-10.73,-11.89,-11.89,0,*6C
1489687275.59,58568,9.44,72892.3,-10.71,-11.85,-11.85,0,*61
1489687276.87,58569,9.44,72882.3,-10.71,-11.85,-11.81,0,*64
1489687278.16,58570,9.44,72898.0,-10.71,-11.81,-11.73,0,*65
1489687279.42,58571,9.44,72906.5,-10.69,-12.07,-11.97,0,*6A
1489687280.7,58572,9.44,72878.8,-10.69,-11.93,-11.85,0,*64
1489687281.99,58573,9.44,72878.5,-10.71,-11.85,-11.93,0,*6C
1489687283.28,58574,9.44,72902.3,-10.71,-11.93,-11.85,0,*6B
1489687284.57,58575,9.44,72948.5,-10.71,-11.85,-11.81,0,*69
1489687285.85,58576,9.44,72964.0,-10.71,-11.67,-11.73,0,*6B
1489687287.15,58577,9.44,72980.8,-10.71,-11.59,-11.67,0,*62
1489687288.44,58578,9.44,72978.3,-10.71,-11.67,-11.67,0,*60
1489687289.71,58579,9.44,72994.0,-10.73,-11.63,-11.77,0,*66
1489687290.99,58580,9.44,73000.5,-10.71,-11.67,-11.73,0,*62
1489687292.28,58581,9.5,73010.3,-10.71,-11.81,-11.93,0,*65
1489687293.55,58582,9.44,72996.0,-10.71,-11.97,-12.25,0,*6F
1489687294.81,58583,9.44,73012.8,-10.71,-12.25,-12.57,0,*61
1489687296.1,58584,9.44,73004.5,-10.71,-12.57,-12.79,0,*6F
1489687297.39,58585,9.44,73060.8,-10.71,-12.83,-12.35,0,*6F
1489687298.66,58586,9.5,73046.0,-10.71,-12.39,-12.07,0,*6C
1489687299.95,58587,9.44,73016.0,-10.71,-12.11,-11.85,0,*6E
1489687301.24,58588,9.44,73040.8,-10.71,-12.07,-11.97,0,*65
1489687302.5,58589,9.5,73018.5,-10.71,-12.11,-12.25,0,*69
1489687303.76,58590,9.44,73014.3,-10.71,-12.39,-12.53,0,*6A
1489687305.03,58591,9.44,72990.5,-10.71,-12.47,-12.71,0,*62
1489687306.28,58592,9.44,72986.5,-10.71,-13.19,-13.19,0,*64
1489687307.52,58593,9.44,72964.5,-10.71,-13.11,-12.93,0,*6E
1489687308.76,58594,9.44,72976.0,-10.71,-13.11,-13.11,0,*62
1489687309.99,58595,9.44,72998.3,-10.71,-15.11,-14.37,0,*66
1489687311.23,58596,9.5,72992.5,-10.71,-16.89,-14.37,0,*67
1489687312.51,58597,9.44,72978.5,-10.71,-15.21,-13.97,0,*6A
1489687313.76,58598,9.44,72966.3,-10.73,-14.23,-13.83,0,*61
1489687314.98,58599,9.44,72968.3,-10.73,-15.25,-14.23,0,*6A
1489687316.18,58600,9.44,72974.8,-10.73,-15.11,-13.47,0,*6B
1489687317.46,58601,9.44,72966.0,-10.73,-13.87,-12.75,0,*63
1489687318.7,58602,9.44,72932.5,-10.73,-12.75,-12.43,0,*69
1489687319.93,58603,9.5,72938.5,-10.73,-12.29,-12.25,0,*61
1489687321.17,58604,9.44,72938.3,-10.75,-12.03,-12.03,0,*6C
1489687322.43,58605,9.44,72980.8,-10.75,-12.03,-12.15,0,*6A
1489687323.68,58606,9.44,72944.3,-10.75,-12.25,-12.43,0,*6E
1489687324.94,58607,9.44,72992.8,-10.75,-12.71,-13.11,0,*68
1489687326.21,58608,9.5,72998.3,-10.75,-12.89,-13.37,0,*64
1489687327.47,58609,9.44,72960.0,-10.75,-13.73,-14.55,0,*62
1489687328.71,58610,9.44,72932.0,-10.77,-14.75,-14.33,0,*69
1489687329.92,58611,9.44,72914.0,-10.77,-14.29,-13.51,0,*62
1489687331.19,58612,9.44,72968.8,-10.75,-13.83,-13.23,0,*61
1489687332.46,58613,9.44,73008.0,-10.75,-13.01,-12.89,0,*6B
1489687333.67,58614,9.44,73002.3,-10.77,-13.19,-13.15,0,*63
1489687334.97,58615,9.44,73006.3,-10.75,-13.01,-12.83,0,*67
1489687336.23,58616,9.44,72990.8,-10.75,-13.29,-13.15,0,*60
1489687337.47,58617,9.44,72986.0,-10.75,-13.11,-12.89,0,*6E
1489687338.71,58618,9.44,72972.5,-10.77,-13.07,-12.61,0,*62
1489687339.98,58619,9.44,72980.3,-10.75,-12.53,-12.39,0,*6C
1489687341.25,58620,9.44,72932.3,-10.75,-12.39,-12.53,0,*66
1489687342.48,58621,9.44,72930.5,-10.77,-12.65,-12.89,0,*6B
1489687343.7,58622,9.44,72954.0,-10.77,-12.89,-12.93,0,*61
1489687344.94,58623,9.44,72894.5,-10.77,-12.93,-12.79,0,*6F
1489687346.23,58624,9.44,72888.8,-10.75,-12.83,-12.75,0,*67
1489687347.47,58625,9.44,72854.0,-10.77,-12.89,-12.75,0,*6E
1489687348.72,58626,9.44,72910.8,-10.77,-12.61,-12.57,0,*6B
1489687349.97,58627,9.44,72936.8,-10.79,-12.89,-12.93,0,*6A
1489687351.23,58628,9.44,72908.0,-10.77,-13.33,-13.33,0,*60
1489687352.43,58629,9.44,72932.0,-10.77,-13.15,-13.07,0,*62
1489687353.7,58630,9.44,72970.5,-10.79,-12.93,-12.75,0,*6F
1489687354.94,58631,9.44,72968.0,-10.79,-13.07,-13.07,0,*66
1489687356.2,58632,9.44,73028.3,-10.79,-13.33,-13.43,0,*62
1489687357.44,58633,9.44,73022.3,-10.77,-14.01,-13.65,0,*6F
1489687358.67,58634,9.44,72984.3,-10.79,-13.65,-13.51,0,*64
1489687359.9,58635,9.44,72960.8,-10.81,-13.19,-12.97,0,*62
1489687361.16,58636,9.44,72956.5,-10.79,-12.61,-12.47,0,*65
1489687362.4,58637,9.44,72944.3,-10.79,-12.47,-12.47,0,*60
1489687363.69,58638,9.44,72950.3,-10.79,-12.57,-12.57,0,*6F
1489687364.96,58639,9.44,72946.8,-10.81,-12.53,-12.53,0,*69
1489687366.18,58640,9.44,73028.3,-10.81,-12.47,-12.39,0,*6E
1489687367.4,58641,9.44,73030.0,-10.81,-12.47,-12.47,0,*66
1489687368.67,58642,9.44,73028.0,-10.79,-12.43,-12.35,0,*63
1489687369.91,58643,9.5,73030.8,-10.81,-12.39,-12.35,0,*68
1489687371.18,58644,9.5,73026.8,-10.79,-12.43,-12.35,0,*65
1489687372.42,58645,9.44,73030.8,-10.81,-12.39,-12.35,0,*6E
1489687373.67,58646,9.44,72988.3,-10.81,-12.21,-12.11,0,*62
1489687374.96,58647,9.44,72970.8,-10.79,-12.15,-12.07,0,*64
1489687376.2,58648,9.44,72960.5,-10.79,-12.03,-12.03,0,*68
1489687377.47,58649,9.44,72972.5,-10.81,-12.11,-12.07,0,*69
1489687378.77,58650,9.44,72944.0,-10.79,-12.07,-12.07,0,*61
1489687380.06,58651,9.44,73016.8,-10.79,-12.15,-12.07,0,*63
1489687381.35,58652,9.5,73024.0,-10.79,-12.15,-12.07,0,*60
1489687382.62,58653,9.44,72986.8,-10.79,-12.43,-12.35,0,*63
1489687383.92,58654,9.44,73012.0,-10.79,-12.35,-12.35,0,*65
1489687385.19,58655,9.44,73016.0,-10.81,-12.11,-12.07,0,*64
1489687386.43,58656,9.44,73016.0,-10.79,-12.03,-12.03,0,*67
1489687387.7,58657,9.44,72996.3,-10.79,-12.21,-12.15,0,*61
1489687388.99,58658,9.44,72956.3,-10.79,-12.07,-12.07,0,*69
1489687390.26,58659,9.5,72972.3,-10.79,-12.03,-11.93,0,*62
1489687391.56,58660,9.44,72986.3,-10.79,-11.93,-11.89,0,*69
1489687392.83,58661,9.44,72980.8,-10.81,-11.93,-11.85,0,*63
1489687394.12,58662,9.44,72982.3,-10.79,-11.89,-11.89,0,*60
1489687395.41,58663,9.44,72968.3,-10.79,-11.81,-11.89,0,*69
1489687396.69,58664,9.44,72938.3,-10.79,-11.93,-12.03,0,*6C
1489687397.94,58665,9.44,72950.5,-10.79,-12.21,-12.21,0,*67
1489687399.18,58666,9.44,72984.3,-10.79,-12.29,-12.29,0,*64
1489687400.43,58667,9.44,72932.3,-10.81,-12.29,-12.35,0,*6F
1489687401.65,58668,9.44,72944.8,-10.81,-12.39,-12.47,0,*64
1489687402.94,58669,9.44,72928.0,-10.79,-12.57,-12.65,0,*6A
1489687404.2,58670,9.44,72932.5,-10.79,-12.93,-13.29,0,*63
1489687405.45,58671,9.44,72956.8,-10.81,-13.51,-13.61,0,*66
1489687406.69,58672,9.44,72968.0,-10.79,-13.43,-13.15,0,*62
1489687407.9,58673,9.44,72982.0,-10.81,-13.07,-12.93,0,*6B
1489687409.17,58674,9.44,72952.3,-10.81,-12.79,-12.65,0,*6D
1489687410.46,58675,9.44,72942.5,-10.83,-12.65,-12.53,0,*66
1489687411.73,58676,9.44,72908.0,-10.83,-12.53,-12.47,0,*65
1489687412.97,58677,9.44,72886.0,-10.83,-12.47,-12.47,0,*61
1489687414.26,58678,9.44,72892.0,-10.83,-12.61,-12.53,0,*6F
1489687415.56,58679,9.44,72932.3,-10.87,-12.53,-12.53,0,*6B
1489687416.8,58680,9.44,72888.3,-10.83,-12.47,-12.47,0,*69
1489687418.08,58681,9.44,72900.3,-10.83,-12.25,-12.35,0,*69
1489687419.35,58682,9.44,72920.5,-10.83,-12.11,-12.21,0,*68
1489687420.64,58683,9.44,72928.3,-10.83,-12.35,-12.35,0,*6A
1489687421.91,58684,9.44,72946.5,-10.83,-12.53,-12.47,0,*68
1489687423.18,58685,9.44,72928.3,-10.83,-12.53,-12.39,0,*60
1489687424.42,58686,9.44,72966.3,-10.83,-12.39,-12.25,0,*62
1489687425.66,58687,9.44,72950.5,-10.87,-12.39,-12.29,0,*6B
1489687426.91,58688,9.44,72958.3,-10.83,-12.25,-12.25,0,*61
1489687428.16,58689,9.44,72954.0,-10.83,-12.21,-12.21,0,*60
1489687429.46,58690,9.44,72952.8,-10.83,-12.35,-12.35,0,*68
1489687430.71,58691,9.44,72946.8,-10.83,-12.21,-12.21,0,*69
1489687431.98,58692,9.44,72946.0,-10.83,-12.11,-12.21,0,*69
1489687433.22,58693,9.44,72934.0,-10.87,-12.03,-12.03,0,*6F
1489687434.51,58694,9.44,72916.0,-10.87,-11.85,-11.89,0,*64
1489687435.81,58695,9.44,72910.8,-10.83,-11.85,-11.93,0,*6A
1489687437.11,58696,9.44,72918.5,-10.83,-11.93,-11.93,0,*6E
1489687438.4,58697,9.44,72936.5,-10.83,-11.93,-11.85,0,*68
1489687439.69,58698,9.44,72932.0,-10.83,-11.85,-11.85,0,*60
1489687440.98,58699,9.44,72944.0,-10.83,-11.85,-11.85,0,*61
1489687442.27,58700,9.44,72954.3,-10.83,-11.81,-11.81,0,*60
1489687443.56,58701,9.44,72956.3,-10.83,-11.93,-11.85,0,*66
1489687444.85,58702,9.44,72944.3,-10.83,-11.73,-11.81,0,*6F
1489687446.13,58703,9.44,72956.0,-10.83,-11.73,-11.73,0,*63
1489687447.42,58704,9.44,72956.8,-10.83,-11.73,-11.81,0,*69
1489687448.7,58705,9.44,72934.0,-10.83,-11.73,-11.73,0,*65
1489687450.0,58706,9.44,72932.8,-10.83,-11.85,-11.93,0,*61
1489687451.28,58707,9.44,72940.0,-10.83,-11.85,-11.81,0,*63
1489687452.57,58708,9.44,72938.3,-10.83,-11.81,-11.81,0,*68
1489687453.87,58709,9.44,72946.5,-10.83,-11.93,-11.93,0,*69
1489687455.17,58710,9.44,72904.0,-10.83,-11.93,-11.93,0,*61
1489687456.46,58711,9.44,72908.8,-10.83,-11.97,-11.93,0,*64
1489687457.73,58712,9.44,72916.3,-10.81,-12.07,-11.97,0,*6B
1489687459.0,58713,9.44,72932.5,-10.81,-11.97,-11.97,0,*60
1489687460.26,58714,9.44,72918.3,-10.81,-11.85,-11.73,0,*6E
1489687461.53,58715,9.44,72898.3,-10.81,-11.73,-11.73,0,*66
1489687462.79,58716,9.44,72950.8,-10.81,-11.73,-11.81,0,*68
1489687464.07,58717,9.44,72948.0,-10.83,-11.73,-11.73,0,*66
1489687465.37,58718,9.44,72954.5,-10.83,-11.67,-11.73,0,*6C
1489687466.66,58719,9.44,72948.0,-10.83,-11.67,-11.73,0,*6D
1489687467.93,58720,9.44,72978.0,-10.81,-11.67,-11.63,0,*64
1489687469.2,58721,9.44,72984.0,-10.81,-11.67,-11.67,0,*61
1489687470.5,58722,9.44,72966.5,-10.79,-11.63,-11.63,0,*65
1489687471.8,58723,9.44,72950.3,-10.79,-11.63,-11.63,0,*64
1489687473.1,58724,9.44,72944.5,-10.79,-11.63,-11.63,0,*63
1489687474.37,58725,9.44,72932.3,-10.81,-11.67,-11.67,0,*65
1489687475.64,58726,9.44,72942.3,-10.81,-11.63,-11.67,0,*62
1489687476.93,58727,9.44,72944.8,-10.79,-11.63,-11.63,0,*60
1489687478.23,58728,9.44,72950.0,-10.79,-11.63,-11.63,0,*6F
1489687479.5,58729,9.44,72902.5,-10.81,-11.67,-11.67,0,*69
1489687480.8,58730,9.44,72880.3,-10.79,-11.63,-11.67,0,*62
1489687482.09,58731,9.44,72930.0,-10.79,-11.67,-11.67,0,*67
1489687483.39,58732,9.44,72942.5,-10.79,-11.67,-11.67,0,*64
1489687484.68,58733,9.44,72950.5,-10.79,-11.63,-11.59,0,*6C
1489687485.98,58734,9.44,72938.5,-10.79,-11.63,-11.63,0,*62
1489687487.25,58735,9.44,72934.5,-10.81,-11.67,-11.67,0,*64
1489687488.54,58736,9.44,72988.3,-10.79,-11.63,-11.63,0,*60
1489687489.84,58737,9.44,72996.0,-10.79,-11.59,-11.59,0,*61
1489687491.13,58738,9.44,72958.3,-10.79,-11.59,-11.59,0,*6E
1489687492.42,58739,9.44,72980.5,-10.79,-11.59,-11.51,0,*67
1489687493.68,58740,9.44,72960.8,-10.77,-11.59,-11.59,0,*6F
1489687494.95,58741,9.44,72984.3,-10.77,-11.63,-11.63,0,*6E
1489687496.22,58742,9.44,72986.0,-10.77,-11.63,-11.63,0,*6D
1489687497.48,58743,9.5,72982.5,-10.77,-11.63,-11.67,0,*68
1489687498.75,58744,9.44,72986.5,-10.77,-11.77,-11.67,0,*6A
1489687500.05,58745,9.44,72982.5,-10.75,-11.63,-11.63,0,*68
1489687501.31,58746,9.44,72980.8,-10.77,-11.63,-11.67,0,*6D
1489687502.57,58747,9.44,72980.3,-10.77,-11.63,-11.77,0,*6D
1489687503.83,58748,9.44,72994.8,-10.77,-11.77,-11.77,0,*67
1489687505.12,58749,9.44,72998.0,-10.75,-11.73,-11.85,0,*6D
1489687506.35,58750,9.44,72968.3,-10.77,-12.03,-11.93,0,*64
1489687507.64,58751,9.44,72944.3,-10.75,-11.85,-11.85,0,*6D
1489687508.93,58752,9.44,72942.3,-10.75,-11.85,-11.77,0,*63
1489687510.17,58753,9.44,72954.3,-10.77,-12.07,-12.03,0,*69
1489687511.46,58754,9.44,72958.0,-10.75,-11.89,-11.73,0,*6D
1489687512.76,58755,9.44,72966.5,-10.75,-11.63,-11.63,0,*69
1489687514.03,58756,9.44,72956.3,-10.77,-11.67,-11.67,0,*68
1489687515.33,58757,9.44,72930.5,-10.75,-11.63,-11.63,0,*6B
1489687516.61,58758,9.44,72932.0,-10.75,-11.73,-11.77,0,*60
1489687517.88,58759,9.44,72932.5,-10.77,-11.67,-11.67,0,*67
1489687519.16,58760,9.44,72932.5,-10.75,-11.73,-11.73,0,*6F
1489687520.42,58761,9.44,72976.0,-10.77,-11.73,-12.07,0,*6C
1489687521.72,58762,9.5,72968.0,-10.75,-12.15,-12.57,0,*6B
1489687522.98,58763,9.44,72970.0,-10.75,-12.97,-13.01,0,*62
1489687524.22,58764,9.44,72978.8,-10.77,-12.29,-12.15,0,*66
1489687525.46,58765,9.44,72968.0,-10.75,-12.03,-12.03,0,*6A
1489687526.76,58766,9.44,72970.3,-10.75,-12.15,-11.89,0,*6F
1489687528.05,58767,9.44,72970.8,-10.75,-11.85,-11.63,0,*60
1489687529.35,58768,9.44,72952.0,-10.75,-11.59,-11.63,0,*6E
1489687530.62,58769,9.44,72944.3,-10.77,-11.63,-11.67,0,*60
1489687531.91,58770,9.44,72966.0,-10.75,-11.63,-11.63,0,*6E
1489687533.18,58771,9.44,72970.0,-10.75,-11.73,-12.03,0,*6B
1489687534.47,58772,9.44,72986.0,-10.75,-12.71,-13.29,0,*60
1489687535.72,58773,9.44,72972.3,-10.75,-12.97,-12.97,0,*6D
1489687536.96,58774,9.44,72962.3,-10.75,-13.23,-12.89,0,*6B
1489687538.21,58775,9.44,72930.0,-10.75,-12.29,-12.39,0,*6A
1489687539.48,58776,9.44,72890.0,-10.75,-12.11,-12.25,0,*6F
1489687540.74,58777,9.44,72896.0,-10.75,-12.11,-12.25,0,*6E
1489687541.95,58778,9.44,72934.3,-10.77,-12.03,-12.25,0,*60
1489687543.23,58779,9.44,72968.0,-10.75,-12.25,-12.71,0,*66
1489687544.5,58780,9.44,72970.5,-10.75,-12.71,-13.11,0,*66
1489687545.76,58781,9.44,72976.3,-10.75,-12.89,-12.61,0,*66
1489687547.0,58782,9.44,72982.0,-10.75,-12.43,-12.25,0,*63
1489687548.3,58783,9.44,72988.0,-10.75,-12.15,-11.89,0,*64
1489687549.59,58784,9.44,72994.0,-10.75,-11.85,-11.63,0,*6D
1489687550.89,58785,9.44,72988.3,-10.75,-11.73,-11.63,0,*65
1489687552.17,58786,9.44,72996.5,-10.75,-11.73,-11.73,0,*67
1489687553.46,58787,9.44,72988.3,-10.75,-11.73,-11.73,0,*66
1489687554.73,58788,9.44,72984.8,-10.73,-11.63,-11.73,0,*6E
1489687556.0,58789,9.5,72994.5,-10.73,-11.73,-11.97,0,*64
1489687557.24,58790,9.44,72974.8,-10.73,-12.11,-12.25,0,*61
1489687558.46,58791,9.44,72966.8,-10.73,-12.25,-12.25,0,*67
1489687559.71,58792,9.5,72982.0,-10.73,-12.15,-12.25,0,*67
1489687560.97,58793,9.44,72988.5,-10.73,-12.57,-13.01,0,*67
1489687562.21,58794,9.44,72982.8,-10.71,-13.19,-13.07,0,*6F
1489687563.46,58795,9.44,72962.3,-10.73,-12.97,-12.83,0,*66
1489687564.72,58796,9.44,72968.8,-10.73,-12.57,-12.57,0,*60
1489687565.99,58797,9.44,72954.5,-10.73,-12.61,-12.57,0,*64
1489687567.26,58798,9.5,72954.8,-10.73,-12.57,-12.57,0,*6E
1489687568.53,58799,9.44,72942.3,-10.73,-12.61,-12.71,0,*6E
1489687569.79,58800,9.44,72914.3,-10.73,-12.61,-12.61,0,*60
1489687571.07,58801,9.44,72954.8,-10.73,-12.75,-12.75,0,*61
1489687572.33,58802,9.44,72970.3,-10.73,-12.83,-12.57,0,*6B
1489687573.6,58803,9.44,72986.0,-10.75,-12.57,-12.43,0,*60
1489687574.83,58804,9.44,72988.5,-10.77,-12.61,-12.43,0,*60
1489687576.05,58805,9.44,72962.8,-10.73,-12.43,-12.25,0,*65
1489687577.29,58806,9.44,73004.3,-10.73,-12.25,-12.15,0,*65
1489687578.53,58807,9.44,72982.5,-10.75,-12.39,-12.39,0,*61
1489687579.82,58808,9.44,72986.3,-10.75,-12.61,-12.61,0,*6E
1489687581.12,58809,9.5,72990.8,-10.75,-12.71,-12.71,0,*6F
1489687582.42,58810,9.44,72988.5,-10.75,-12.71,-12.71,0,*67
1489687583.71,58811,9.44,72974.8,-10.75,-12.61,-12.53,0,*67
1489687584.97,58812,9.44,72984.3,-10.77,-12.61,-12.57,0,*62
1489687586.21,58813,9.44,72996.3,-10.75,-12.43,-12.43,0,*64
1489687587.48,58814,9.44,72992.8,-10.75,-12.43,-12.53,0,*62
1489687588.69,58815,9.44,72998.3,-10.77,-12.47,-12.43,0,*64
1489687589.93,58816,9.44,73004.8,-10.77,-12.35,-12.43,0,*62
1489687591.22,58817,9.44,72996.8,-10.79,-12.35,-12.35,0,*6C
1489687592.52,58818,9.44,72992.5,-10.79,-12.35,-12.35,0,*63
1489687593.76,58819,9.44,73002.0,-10.79,-12.29,-12.43,0,*6E
1489687595.03,58820,9.44,73004.8,-10.79,-12.35,-12.29,0,*65
1489687596.28,58821,9.44,72994.8,-10.79,-12.29,-12.21,0,*61
1489687597.52,58822,9.44,73006.5,-10.81,-12.39,-12.35,0,*61
1489687598.79,58823,9.44,72992.0,-10.79,-12.35,-12.21,0,*6E
1489687600.09,58824,9.44,73012.3,-10.79,-12.07,-11.93,0,*62
1489687601.36,58825,9.44,73026.8,-10.79,-12.07,-12.03,0,*69
1489687602.66,58826,9.44,73016.0,-10.79,-11.93,-11.93,0,*6E
1489687603.95,58827,9.44,72998.0,-10.79,-11.89,-11.93,0,*64
1489687605.22,58828,9.44,72970.5,-10.81,-11.85,-11.93,0,*60
1489687606.51,58829,9.44,72968.0,-10.79,-11.93,-11.81,0,*62
1489687607.8,58830,9.44,72958.3,-10.79,-11.81,-11.81,0,*69
1489687609.08,58831,9.44,72950.3,-10.79,-11.89,-11.81,0,*60
1489687610.38,58832,9.44,72928.0,-10.79,-11.89,-11.89,0,*6B
1489687611.64,58833,9.44,72878.3,-10.79,-12.03,-11.93,0,*60
1489687612.91,58834,9.44,72886.3,-10.81,-12.07,-12.11,0,*6D
1489687614.18,58835,9.44,72870.0,-10.79,-12.03,-12.07,0,*68
1489687615.42,58836,9.44,72874.8,-10.79,-12.03,-12.03,0,*6F
1489687616.71,58837,9.44,72902.3,-10.79,-11.81,-11.89,0,*66
1489687618.0,58838,9.44,72914.3,-10.79,-11.67,-11.81,0,*69
1489687619.29,58839,9.44,72944.0,-10.79,-11.67,-11.67,0,*60
1489687620.58,58840,9.44,72962.5,-10.79,-11.67,-11.67,0,*6E
1489687621.88,58841,9.44,72994.3,-10.79,-11.67,-11.67,0,*6F
1489687623.17,58842,9.44,73000.5,-10.79,-11.77,-11.77,0,*6C
1489687624.46,58843,9.44,72998.5,-10.79,-11.77,-11.93,0,*67
1489687625.75,58844,9.44,73004.3,-10.79,-11.67,-11.67,0,*6A
1489687627.05,58845,9.44,73012.0,-10.79,-11.67,-11.67,0,*6B
1489687628.34,58846,9.44,73014.5,-10.79,-11.67,-11.67,0,*68
1489687629.63,58847,9.44,73014.8,-10.79,-11.67,-11.67,0,*69
1489687630.9,58848,9.44,73020.8,-10.77,-11.67,-11.67,0,*68
1489687632.16,58849,9.44,73012.8,-10.77,-11.63,-11.67,0,*6D
1489687633.46,58850,9.44,73014.0,-10.79,-11.63,-11.63,0,*6F
1489687634.73,58851,9.44,73018.5,-10.77,-11.63,-11.63,0,*60
1489687636.0,58852,9.44,73012.5,-10.77,-11.63,-11.63,0,*63
1489687637.27,58853,9.44,73010.0,-10.77,-11.59,-11.63,0,*6B
1489687638.53,58854,9.44,73022.3,-10.77,-11.67,-11.67,0,*65
1489687639.8,58855,9.44,73028.0,-10.77,-11.63,-11.67,0,*60
1489687641.06,58856,9.44,73036.5,-10.77,-11.63,-11.67,0,*63
1489687642.32,58857,9.44,73054.8,-10.77,-11.59,-11.67,0,*6B
1489687643.62,58858,9.44,73068.0,-10.75,-11.55,-11.73,0,*6F
1489687644.91,58859,9.44,73040.3,-10.75,-11.85,-11.85,0,*6A
1489687646.15,58860,9.44,73038.8,-10.75,-12.03,-12.03,0,*60
1489687647.39,58861,9.44,73002.8,-10.77,-12.15,-12.21,0,*64
1489687648.66,58862,9.44,72978.0,-10.77,-11.93,-11.93,0,*60
1489687649.95,58863,9.44,72960.3,-10.75,-11.77,-11.93,0,*69
1489687651.19,58864,9.44,72956.0,-10.79,-12.03,-12.03,0,*68
1489687652.44,58865,9.44,72956.3,-10.77,-12.07,-12.21,0,*63
1489687653.68,58866,9.44,72914.5,-10.77,-12.15,-12.21,0,*63
1489687654.94,58867,9.44,72966.3,-10.79,-12.03,-12.07,0,*6F
1489687656.21,58868,9.44,72954.5,-10.79,-12.15,-12.29,0,*6B
1489687657.43,58869,9.44,72934.3,-10.77,-12.21,-12.21,0,*6B
1489687658.69,58870,9.44,72954.8,-10.77,-12.15,-12.15,0,*63
1489687659.96,58871,9.44,72984.8,-10.75,-12.03,-12.07,0,*64
1489687661.22,58872,9.44,73020.0,-10.77,-12.07,-12.15,0,*62
1489687662.51,58873,9.44,72996.8,-10.79,-12.07,-12.07,0,*6E
1489687663.81,58874,9.44,72968.0,-10.79,-11.93,-12.07,0,*67
1489687665.1,58875,9.38,72950.5,-10.79,-12.07,-12.15,0,*6B
1489687666.34,58876,9.44,72946.3,-10.77,-12.03,-12.07,0,*61
1489687667.57,58877,9.44,72888.0,-10.77,-12.03,-12.07,0,*60
1489687668.83,58878,9.38,72902.0,-10.77,-12.15,-12.15,0,*6B
1489687670.1,58879,9.38,72924.8,-10.77,-11.93,-12.07,0,*64
1489687671.34,58880,9.44,72906.5,-10.79,-12.03,-12.29,0,*6A
1489687672.64,58881,9.44,72904.8,-10.79,-11.93,-11.93,0,*63
1489687673.91,58882,9.44,72876.8,-10.79,-11.89,-12.03,0,*61
1489687675.16,58883,9.44,72896.8,-10.77,-11.93,-12.21,0,*65
1489687676.4,58884,9.38,72886.8,-10.79,-12.29,-12.47,0,*6E
1489687677.67,58885,9.44,72900.3,-10.79,-12.65,-12.93,0,*6E
1489687678.93,58886,9.44,72864.8,-10.79,-13.01,-13.43,0,*62
1489687680.17,58887,9.44,72880.5,-10.79,-13.47,-14.29,0,*6A
1489687681.41,58888,9.44,72912.5,-10.79,-14.33,-15.07,0,*6C
1489687682.65,58889,9.44,72900.8,-10.79,-14.19,-14.15,0,*67
1489687683.93,58890,9.44,72924.5,-10.79,-13.51,-13.29,0,*6C
1489687685.14,58891,9.44,72946.5,-10.77,-12.47,-12.47,0,*6C
1489687686.4,58892,9.44,72974.3,-10.75,-12.15,-12.25,0,*6E
1489687687.65,58893,9.44,72978.0,-10.79,-12.29,-12.21,0,*68
1489687688.93,58894,9.44,72984.3,-10.79,-12.21,-11.93,0,*6D
1489687690.19,58895,9.44,72978.5,-10.79,-12.03,-11.81,0,*6F
1489687691.49,58896,9.44,72978.3,-10.79,-11.93,-11.89,0,*6E
1489687692.78,58897,9.44,72960.8,-10.79,-11.89,-11.89,0,*64
1489687694.07,58898,9.44,72996.3,-10.79,-11.89,-11.89,0,*6B
1489687695.36,58899,9.44,72976.0,-10.79,-11.81,-11.81,0,*6A
1489687696.61,58900,9.44,72870.5,-10.77,-11.77,-11.77,0,*65
1489687697.88,58901,9.44,72908.8,-10.77,-11.77,-11.89,0,*65
1489687699.14,58902,9.44,72868.8,-10.77,-11.89,-11.89,0,*67
1489687700.39,58903,9.38,72868.0,-10.77,-11.93,-12.03,0,*6C
1489687701.65,58904,9.44,72934.8,-10.77,-11.89,-11.89,0,*61
1489687702.92,58905,9.44,72948.0,-10.77,-11.93,-11.89,0,*6B
1489687704.19,58906,9.44,72948.8,-10.77,-11.93,-11.93,0,*63
1489687705.45,58907,9.44,72860.3,-10.77,-11.81,-11.93,0,*61
1489687706.74,58908,9.44,72944.8,-10.79,-11.81,-11.93,0,*60
1489687707.98,58909,9.44,72960.8,-10.77,-12.07,-12.21,0,*68